Terug naar catalogus

DMSP 5D-2 F13 DEB

ActiefSSO
NORAD 40398·DEBRIS·🇺🇸 United States

Gelanceerd Mar 24, 1995 vanaf Vandenberg Space Force Base

Loading…

Volgende Passages (komende 24 uur)

TLE

VersSource: Space-Track

Epoch: Sep 14, 2026, 00:06 UTC

1 40398U 95015K   26257.00481030  .00000118  00000-0  80112-4 0  9998
2 40398  98.7977 270.3810 0005530 244.1824 115.8781 14.17485889597122

Volg DMSP 5D-2 F13 DEB in realtime met AllMySat

Download on the App Store